Weather History for Havre, MT

Change the Weather History Date:

Friday, June 14, 2013

  Actual Average Record
Temperature  
Mean Temperature 58 °F 62 °F  
Max Temperature 68 °F 75 °F 100 °F (1918)
Min Temperature 48 °F 48 °F 33 °F (1969)
Degree Days  
Heating Degree Days 7 5  
Month to date heating degree days 73 81  
Since 1 June heating degree days 73 81  
Since 1 July heating degree days 7978 8169  
Cooling Degree Days 0 1  
Month to date cooling degree days 1 14  
Year to date cooling degree days 8 25  
Since 1 June cooling degree days 1 14  
Growing Degree Days 10 (Base 50)    
Moisture  
Dew Point 45 °F    
Average Humidity 63    
Maximum Humidity 89    
Minimum Humidity 37    
Precipitation  
Precipitation 0.11 in 0.08 in 1.30 in (1943)
Month to date precipitation 3.20 1.06  
Year to date precipitation 10.52 4.79  
Snow  
Snow 0.00 in 0.00 in 0.00 in (2000)
Month to date snowfall 0.0 0.5  
Since 1 June snowfall 0.0 0.5  
Since 1 July snowfall 50.6 39.5  
Snow Depth 0.00 in    
Sea Level Pressure  
Sea Level Pressure 29.89 in    
Wind  
Wind Speed 14 mph (West)    
Max Wind Speed 32 mph    
Max Gust Speed 44 mph    
Visibility 10 miles    
Events Rain , Thunderstorm    
T = Trace of Precipitation, MM = Missing Value Source: NWS Daily Summary

Daily Weather History Graph

Daily Weather History Graph

Search for Another Location

Airport:

Trip Planner

Search our weather history database for the weather conditions in past years. The results will help you decide how hot, cold, wet, or windy it might be!

Date:

Astronomy

Jun. 14, 2013 Rise Set
Actual Time 5:16 AM MDT 9:22 PM MDT
Civil Twilight 4:34 AM MDT 10:04 PM MDT
Nautical Twilight 3:35 AM MDT 11:03 PM MDT
Astronomical Twilight 1:42 AM MDT 12:59 AM MDT
Moon 11:19 AM MDT (6/14) 12:07 AM MDT (6/14)
Length of Visible Light 17h 30m
Length of Day
16h 06m
Waxing Crescent, 31% of the Moon is Illuminated
Jun 14
Waxing Crescent
Jun 16
First Quarter
Jun 23
Full
Jun 29
Last Quarter
Jul 8
New

Hourly Weather History & Observations

Time (MDT) Temp. Dew Point Humidity Pressure Visibility Wind Dir Wind Speed Gust Speed Precip Events Conditions
12:53 AM 55.0 °F 51.1 °F 86% 29.91 in 10.0 mi SW 11.5 mph - N/A   Clear
1:53 AM 54.0 °F 50.0 °F 86% 29.89 in 10.0 mi SW 6.9 mph - N/A   Mostly Cloudy
2:53 AM 53.1 °F 50.0 °F 89% 29.86 in 10.0 mi SW 9.2 mph - N/A   Scattered Clouds
3:53 AM 53.1 °F 48.9 °F 86% 29.86 in 10.0 mi SW 11.5 mph - N/A   Overcast
4:53 AM 53.1 °F 46.9 °F 80% 29.87 in 10.0 mi West 6.9 mph - N/A   Overcast
5:53 AM 52.0 °F 45.0 °F 77% 29.89 in 10.0 mi WSW 9.2 mph - N/A   Mostly Cloudy
6:53 AM 54.0 °F 46.0 °F 75% 29.88 in 10.0 mi WSW 9.2 mph - 0.00 in   Scattered Clouds
7:53 AM 55.0 °F 46.0 °F 72% 29.89 in 10.0 mi SW 10.4 mph - N/A   Clear
8:53 AM 59.0 °F 45.0 °F 60% 29.88 in 10.0 mi SW 12.7 mph - N/A   Clear
9:53 AM 60.1 °F 44.1 °F 55% 29.88 in 10.0 mi WSW 15.0 mph - N/A   Clear
10:53 AM 64.0 °F 45.0 °F 50% 29.87 in 10.0 mi WSW 17.3 mph 21.9 mph N/A   Partly Cloudy
11:53 AM 63.0 °F 44.1 °F 50% 29.87 in 10.0 mi WNW 15.0 mph 23.0 mph N/A   Mostly Cloudy
12:53 PM 62.1 °F 46.0 °F 56% 29.87 in 10.0 mi West 18.4 mph - 0.02 in   Scattered Clouds
1:36 PM 53.6 °F 46.4 °F 77% 29.90 in 3.0 mi WNW 16.1 mph 31.1 mph 0.08 in Rain , Thunderstorm Heavy Thunderstorms and Rain
1:50 PM 60.8 °F 51.8 °F 72% 29.89 in 10.0 mi WNW 13.8 mph 20.7 mph 0.08 in   Mostly Cloudy
1:53 PM 61.0 °F 50.0 °F 67% 29.89 in 10.0 mi WNW 12.7 mph - 0.08 in   Mostly Cloudy
2:53 PM 55.9 °F 48.0 °F 75% 29.91 in 10.0 mi WNW 17.3 mph 32.2 mph 0.01 in Rain Light Rain
3:53 PM 64.0 °F 44.1 °F 48% 29.88 in 10.0 mi West 19.6 mph 25.3 mph 0.00 in   Scattered Clouds
4:53 PM 66.0 °F 41.0 °F 40% 29.87 in 10.0 mi West 21.9 mph 28.8 mph N/A   Clear
5:53 PM 64.0 °F 41.0 °F 43% 29.88 in 10.0 mi West 20.7 mph 31.1 mph N/A   Clear
6:53 PM 61.0 °F 43.0 °F 52% 29.87 in 10.0 mi West 11.5 mph - N/A   Scattered Clouds
7:53 PM 64.0 °F 37.9 °F 38% 29.87 in 10.0 mi West 24.2 mph 34.5 mph N/A   Clear
8:53 PM 59.0 °F 39.9 °F 49% 29.88 in 10.0 mi WSW 17.3 mph 25.3 mph N/A   Clear
9:53 PM 57.0 °F 41.0 °F 55% 29.89 in 10.0 mi WSW 16.1 mph - N/A   Partly Cloudy
10:53 PM 55.9 °F 39.9 °F 55% 29.91 in 10.0 mi West 18.4 mph 25.3 mph N/A   Clear
11:53 PM 53.1 °F 41.0 °F 64% 29.94 in 10.0 mi WSW 11.5 mph - N/A   Clear